Location: Pedholt
(56.0260°N, 10.2097°E)
Time: 00:18:18
(UTC+00:00)

A-11 Canister half - Pass Details

Date: 05 August 2021
Orbit: 1515 x 1685 km, 47.2° (Epoch: 19 September)

Event Time Altitude Azimuth Distance (km) Brightness Sun altitude
Rises 19:26:29 0° 272° (W) 4,849 12.7 -1.8°
Reaches altitude 10° 19:29:43 10° 266° (W) 3,883 12.0 -2.2°
Maximum altitude 19:38:59 46° 198° (SSW) 2,147 9.7 -3.2°
Drops below altitude 10° 19:48:24 10° 130° (SE) 3,947 10.5 -4.3°
Enters shadow 19:50:02 - 127° (SE) 4,424 10.7 -4.4°
Sets 19:51:44 0° 125° (SE) 4,934 - -4.6°
